| time (UTC) | temp F | wind direction | speed MPH | gust MPH | rain 1hr in | rain 24hr in | rain mn in | humidity % | barometer mb |
| 20260506162000 | 69 | 13 | 2.0 | 3.0 | 0.00 | 0.00 | 0.00 | 38 | |
| 20260506161500 | 69 | 353 | 2.0 | 3.0 | 0.00 | 0.00 | 0.00 | 37 | |
| 20260506161000 | 69 | 337 | 3.0 | 3.0 | 0.00 | 0.00 | 0.00 | 38 | |
| 20260506160500 | 68 | 269 | 2.0 | 3.0 | 0.00 | 0.00 | 0.00 | 39 | |
| 20260506160001 | 69 | 359 | 4.0 | 4.0 | 0.00 | 0.00 | 0.00 | 38 | |
| 20260506155500 | 69 | 31 | 3.0 | 5.0 | 0.00 | 0.00 | 0.00 | 38 | |
| 20260506155000 | 69 | 13 | 3.0 | 4.0 | 0.00 | 0.00 | 0.00 | 38 | |
| 20260506154500 | 70 | 3 | 4.0 | 6.0 | 0.00 | 0.00 | 0.00 | 37 | |
| 20260506154000 | 70 | 37 | 2.0 | 4.0 | 0.00 | 0.00 | 0.00 | 38 | |
| 20260506153500 | 69 | 338 | 3.0 | 5.0 | 0.00 | 0.00 | 0.00 | 38 | |
| 20260506153000 | 70 | 6 | 4.0 | 7.0 | 0.00 | 0.00 | 0.00 | 38 | |
| 20260506152500 | 70 | 2 | 5.0 | 5.0 | 0.00 | 0.00 | 0.00 | 38 | |
| 20260506152000 | 70 | 295 | 3.0 | 4.0 | 0.00 | 0.00 | 0.00 | 39 | |
| 20260506151500 | 70 | 359 | 7.0 | 9.0 | 0.00 | 0.00 | 0.00 | 39 | |
| 20260506151000 | 71 | 344 | 4.0 | 4.0 | 0.00 | 0.00 | 0.00 | 38 | |
| 20260506150500 | 71 | 329 | 2.0 | 4.0 | 0.00 | 0.00 | 0.00 | 38 | |
| 20260506150000 | 71 | 352 | 4.0 | 5.0 | 0.00 | 0.00 | 0.00 | 37 | |
| 20260506145500 | 71 | 308 | 2.0 | 5.0 | 0.00 | 0.00 | 0.00 | 37 | |
| 20260506145000 | 71 | 350 | 5.0 | 6.0 | 0.00 | 0.00 | 0.00 | 37 | |
| 20260506144500 | 71 | 353 | 6.0 | 8.0 | 0.00 | 0.00 | 0.00 | 37 | |
| 20260506144000 | 72 | 19 | 3.0 | 5.0 | 0.00 | 0.00 | 0.00 | 36 | |
| 20260506143500 | 72 | 287 | 5.0 | 5.0 | 0.00 | 0.00 | 0.00 | 35 | |
| 20260506143000 | 72 | 333 | 3.0 | 7.0 | 0.00 | 0.00 | 0.00 | 35 | |
| 20260506142500 | 72 | 242 | 3.0 | 6.0 | 0.00 | 0.00 | 0.00 | 35 | |
| 20260506142000 | 72 | 305 | 4.0 | 4.0 | 0.00 | 0.00 | 0.00 | 35 | |
| 20260506141500 | 72 | 66 | 2.0 | 6.0 | 0.00 | 0.00 | 0.00 | 34 | |
| 20260506141000 | 73 | 324 | 4.0 | 7.0 | 0.00 | 0.00 | 0.00 | 35 | |
| 20260506140500 | 73 | 265 | 5.0 | 8.0 | 0.00 | 0.00 | 0.00 | 34 | |
| 20260506140000 | 73 | 256 | 4.0 | 6.0 | 0.00 | 0.00 | 0.00 | 34 | |
| 20260506135500 | 73 | 20 | 6.0 | 8.0 | 0.00 | 0.00 | 0.00 | 34 | |
| 20260506135000 | 73 | 334 | 3.0 | 8.0 | 0.00 | 0.00 | 0.00 | 35 | |
| 20260506134500 | 73 | 265 | 8.0 | 10.0 | 0.00 | 0.00 | 0.00 | 35 | |
| 20260506134000 | 73 | 235 | 2.0 | 4.0 | 0.00 | 0.00 | 0.00 | 35 | |
| 20260506133500 | 74 | 262 | 3.0 | 9.0 | 0.00 | 0.00 | 0.00 | 35 | |
| 20260506133000 | 73 | 359 | 9.0 | 9.0 | 0.00 | 0.00 | 0.00 | 37 | |
| 20260506132500 | 74 | 359 | 5.0 | 6.0 | 0.00 | 0.00 | 0.00 | 35 | |
| 20260506132000 | 74 | 325 | 4.0 | 7.0 | 0.00 | 0.00 | 0.00 | 33 | |
| 20260506131500 | 75 | 297 | 3.0 | 7.0 | 0.00 | 0.00 | 0.00 | 33 | |
| 20260506131000 | 75 | 351 | 3.0 | 8.0 | 0.00 | 0.00 | 0.00 | 33 | |
| 20260506130500 | 75 | 305 | 6.0 | 8.0 | 0.00 | 0.00 | 0.00 | 33 | |
| 20260506130000 | 74 | 284 | 2.0 | 4.0 | 0.00 | 0.00 | 0.00 | 33 | |
| 20260506125500 | 75 | 352 | 8.0 | 9.0 | 0.00 | 0.00 | 0.00 | 34 | |
| 20260506125000 | 74 | 344 | 6.0 | 6.0 | 0.00 | 0.00 | 0.00 | 34 | |
| 20260506124500 | 74 | 273 | 6.0 | 8.0 | 0.00 | 0.00 | 0.00 | 34 | |
| 20260506124000 | 74 | 229 | 2.0 | 4.0 | 0.00 | 0.00 | 0.00 | 32 | |
| 20260506123500 | 74 | 342 | 4.0 | 5.0 | 0.00 | 0.00 | 0.00 | 34 | |
| 20260506123000 | 74 | 249 | 4.0 | 8.0 | 0.00 | 0.00 | 0.00 | 34 | |
| 20260506122500 | 74 | 262 | 5.0 | 9.0 | 0.00 | 0.00 | 0.00 | 35 | |
| 20260506122000 | 75 | 353 | 4.0 | 6.0 | 0.00 | 0.00 | 0.00 | 33 | |
| 20260506121500 | 74 | 309 | 8.0 | 9.0 | 0.00 | 0.00 | 0.00 | 36 | |
| 20260506121000 | 74 | 3 | 2.0 | 3.0 | 0.00 | 0.00 | 0.00 | 33 | |
| 20260506120500 | 74 | 296 | 6.0 | 7.0 | 0.00 | 0.00 | 0.00 | 35 | |
| 20260506120000 | 74 | 207 | 4.0 | 6.0 | 0.00 | 0.00 | 0.00 | 33 | |
| 20260506115500 | 75 | 356 | 3.0 | 5.0 | 0.00 | 0.00 | 0.00 | 33 | |
| 20260506115000 | 74 | 323 | 4.0 | 5.0 | 0.00 | 0.00 | 0.00 | 35 | |
| 20260506114500 | 74 | 252 | 6.0 | 6.0 | 0.00 | 0.00 | 0.00 | 35 | |
| 20260506114000 | 74 | 275 | 3.0 | 7.0 | 0.00 | 0.00 | 0.00 | 35 | |
| 20260506113500 | 74 | 247 | 2.0 | 4.0 | 0.00 | 0.00 | 0.00 | 35 | |
| 20260506113000 | 75 | 10 | 2.0 | 4.0 | 0.00 | 0.00 | 0.00 | 34 | |
| 20260506112500 | 75 | 19 | 3.0 | 3.0 | 0.00 | 0.00 | 0.00 | 34 | |
| 20260506112000 | 75 | 3 | 3.0 | 6.0 | 0.00 | 0.00 | 0.00 | 34 | |
| 20260506111500 | 73 | 45 | 2.0 | 3.0 | 0.00 | 0.00 | 0.00 | 36 | |
| 20260506111000 | 73 | 327 | 2.0 | 4.0 | 0.00 | 0.00 | 0.00 | 36 | |
| 20260506110500 | 73 | 352 | 4.0 | 5.0 | 0.00 | 0.00 | 0.00 | 35 | |
| 20260506110000 | 74 | 11 | 4.0 | 5.0 | 0.00 | 0.00 | 0.00 | 34 | |
| 20260506105500 | 75 | 254 | 5.0 | 5.0 | 0.00 | 0.00 | 0.00 | 34 | |
| 20260506105000 | 75 | 326 | 3.0 | 6.0 | 0.00 | 0.00 | 0.00 | 35 | |
| 20260506104500 | 74 | 26 | 3.0 | 3.0 | 0.00 | 0.00 | 0.00 | 35 | |
| 20260506104000 | 74 | 254 | 1.0 | 4.0 | 0.00 | 0.00 | 0.00 | 34 | |
| 20260506103500 | 73 | 0 | 5.0 | 6.0 | 0.00 | 0.00 | 0.00 | 37 | |
| 20260506103000 | 74 | 234 | 4.0 | 5.0 | 0.00 | 0.00 | 0.00 | 34 | |
| 20260506102500 | 74 | 274 | 2.0 | 2.0 | 0.00 | 0.00 | 0.00 | 33 | |
| 20260506102000 | 73 | 358 | 4.0 | 5.0 | 0.00 | 0.00 | 0.00 | 36 | |
| 20260506101500 | 72 | 241 | 1.0 | 4.0 | 0.00 | 0.00 | 0.00 | 37 | |
| 20260506101001 | 71 | 279 | 1.0 | 3.0 | 0.00 | 0.00 | 0.00 | 39 | |
| 20260506100500 | 71 | 88 | 4.0 | 5.0 | 0.00 | 0.00 | 0.00 | 38 | |
| 20260506100000 | 71 | 354 | 3.0 | 5.0 | 0.00 | 0.00 | 0.00 | 37 | |
| 20260506095500 | 70 | 35 | 2.0 | 5.0 | 0.00 | 0.00 | 0.00 | 40 | |
| 20260506095000 | 71 | 355 | 5.0 | 5.0 | 0.00 | 0.00 | 0.00 | 37 | |
| 20260506094500 | 71 | 99 | 3.0 | 4.0 | 0.00 | 0.00 | 0.00 | 37 | |
| 20260506094000 | 72 | 0 | 2.0 | 3.0 | 0.00 | 0.00 | 0.00 | 36 | |
| 20260506093500 | 72 | 29 | 3.0 | 5.0 | 0.00 | 0.00 | 0.00 | 39 | |
| 20260506093000 | 70 | 345 | 3.0 | 3.0 | 0.00 | 0.00 | 0.00 | 38 | |
| 20260506092500 | 70 | 349 | 8.0 | 10.0 | 0.00 | 0.00 | 0.00 | 38 | |
| 20260506092000 | 71 | 345 | 6.0 | 7.0 | 0.00 | 0.00 | 0.00 | 35 | |
| 20260506091500 | 71 | 154 | 2.0 | 5.0 | 0.00 | 0.00 | 0.00 | 33 | |
| 20260506091000 | 70 | 197 | 2.0 | 3.0 | 0.00 | 0.00 | 0.00 | 34 | |
| 20260506090500 | 71 | 278 | 2.0 | 4.0 | 0.00 | 0.00 | 0.00 | 34 | |
| 20260506090000 | 71 | 39 | 2.0 | 3.0 | 0.00 | 0.00 | 0.00 | 35 | |
| 20260506085500 | 71 | 331 | 3.0 | 5.0 | 0.00 | 0.00 | 0.00 | 33 | |
| 20260506085000 | 71 | 0 | 4.0 | 6.0 | 0.00 | 0.00 | 0.00 | 32 | |
| 20260506084500 | 71 | 28 | 4.0 | 5.0 | 0.00 | 0.00 | 0.00 | 33 | |
| 20260506084000 | 71 | 6 | 3.0 | 4.0 | 0.00 | 0.00 | 0.00 | 36 | |
| 20260506083500 | 71 | 262 | 2.0 | 3.0 | 0.00 | 0.00 | 0.00 | 32 | |
| 20260506083000 | 70 | 121 | 0.0 | 4.0 | 0.00 | 0.00 | 0.00 | 36 | |
| 20260506082500 | 71 | 357 | 6.0 | 7.0 | 0.00 | 0.00 | 0.00 | 40 | |
| 20260506082000 | 70 | 272 | 5.0 | 5.0 | 0.00 | 0.00 | 0.00 | 35 | |
| 20260506081500 | 70 | 34 | 3.0 | 3.0 | 0.00 | 0.00 | 0.00 | 36 | |
| 20260506081000 | 70 | 13 | 2.0 | 4.0 | 0.00 | 0.00 | 0.00 | 36 | |
| 20260506080500 | 69 | 350 | 2.0 | 4.0 | 0.00 | 0.00 | 0.00 | 40 | |
| 20260506073500 | 67 | 22 | 2.0 | 3.0 | 0.00 | 0.00 | 0.00 | 47 | |
| 20260506073000 | 67 | 100 | 4.0 | 4.0 | 0.00 | 0.00 | 0.00 | 46 | |
| 20260506072500 | 67 | 51 | 0.0 | 2.0 | 0.00 | 0.00 | 0.00 | 46 | |
| 20260506072000 | 65 | 109 | 1.0 | 3.0 | 0.00 | 0.00 | 0.00 | 47 | |
| 20260506071500 | 64 | 16 | 3.0 | 3.0 | 0.00 | 0.00 | 0.00 | 47 | |
| 20260506071000 | 66 | 14 | 6.0 | 6.0 | 0.00 | 0.00 | 0.00 | 47 | |
| 20260506070500 | 65 | 275 | 3.0 | 3.0 | 0.00 | 0.00 | 0.00 | 46 | |
| 20260506062500 | 63 | 29 | 3.0 | 3.0 | 0.00 | 0.00 | 0.00 | 49 | |
| 20260506062000 | 62 | 25 | 2.0 | 2.0 | 0.00 | 0.00 | 0.00 | 48 | |
| 20260506061500 | 62 | 354 | 2.0 | 2.0 | 0.00 | 0.00 | 0.00 | 51 | |
| 20260506061000 | 62 | 18 | 2.0 | 3.0 | 0.00 | 0.00 | 0.00 | 50 | |
| 20260506060500 | 61 | 16 | 2.0 | 3.0 | 0.00 | 0.00 | 0.00 | 54 | |
| 20260506051000 | 56 | 317 | 1.0 | 2.0 | 0.00 | 0.00 | 0.00 | 61 | |
| 20260506050500 | 55 | 332 | 0.0 | 2.0 | 0.00 | 0.00 | 0.00 | 63 | |
| 20260506045000 | 52 | 182 | 0.0 | 0.0 | 0.00 | 0.00 | 0.00 | 67 | |
| 20260506044500 | 51 | 144 | 0.0 | 0.0 | 0.00 | 0.00 | 0.00 | 68 | |
| 20260506044000 | 51 | 217 | 1.0 | 1.0 | 0.00 | 0.00 | 0.00 | 66 | |
| 20260506043500 | 51 | 135 | 0.0 | 0.0 | 0.00 | 0.00 | 0.00 | 66 | |
| 20260506043000 | 51 | 108 | 0.0 | 0.0 | 0.00 | 0.00 | 0.00 | 72 | |
| 20260506042500 | 51 | 11 | 0.0 | 1.0 | 0.00 | 0.00 | 0.00 | 71 | |
| 20260506042000 | 50 | 322 | 0.0 | 1.0 | 0.00 | 0.00 | 0.00 | 68 | |
| 20260506041500 | 50 | 283 | 2.0 | 2.0 | 0.00 | 0.00 | 0.00 | 66 | |
| 20260506041000 | 50 | 197 | 0.0 | 2.0 | 0.00 | 0.00 | 0.00 | 66 | |
| 20260506040500 | 50 | 199 | 2.0 | 2.0 | 0.00 | 0.00 | 0.00 | 66 | |
| 20260506040000 | 50 | 230 | 0.0 | 1.0 | 0.00 | 0.00 | 0.00 | 65 | |
| 20260506035500 | 50 | 63 | 0.0 | 1.0 | 0.00 | 0.00 | 0.00 | 64 | |
| 20260506035000 | 49 | 35 | 2.0 | 3.0 | 0.00 | 0.00 | 0.00 | 65 | |
| 20260506034500 | 48 | 356 | 2.0 | 2.0 | 0.00 | 0.00 | 0.00 | 67 | |
| 20260506034000 | 48 | 306 | 0.0 | 1.0 | 0.00 | 0.00 | 0.00 | 68 | |
| 20260506033500 | 48 | 357 | 2.0 | 2.0 | 0.00 | 0.00 | 0.00 | 67 | |
| 20260506033000 | 48 | 26 | 1.0 | 1.0 | 0.00 | 0.00 | 0.00 | 67 | |
| 20260506032500 | 47 | 175 | 1.0 | 1.0 | 0.00 | 0.00 | 0.00 | 69 | |
| 20260506032000 | 46 | 29 | 2.0 | 3.0 | 0.00 | 0.00 | 0.00 | 72 | |
| 20260506031500 | 46 | 171 | 0.0 | 0.0 | 0.00 | 0.00 | 0.00 | 73 | |
| 20260506031001 | 46 | 10 | 1.0 | 2.0 | 0.00 | 0.00 | 0.00 | 73 | |
| 20260506030500 | 46 | 338 | 2.0 | 2.0 | 0.00 | 0.00 | 0.00 | 73 | |
| 20260506030000 | 46 | 283 | 0.0 | 0.0 | 0.00 | 0.00 | 0.00 | 72 | |
| 20260506025500 | 45 | 205 | 0.0 | 2.0 | 0.00 | 0.00 | 0.00 | 75 | |
| 20260506025000 | 46 | 298 | 3.0 | 3.0 | 0.00 | 0.00 | 0.00 | 73 | |
| 20260506024500 | 46 | 325 | 0.0 | 2.0 | 0.00 | 0.00 | 0.00 | 71 | |
| 20260506024000 | 47 | 287 | 2.0 | 3.0 | 0.00 | 0.00 | 0.00 | 69 | |
| 20260506023500 | 48 | 261 | 1.0 | 2.0 | 0.00 | 0.00 | 0.00 | 67 | |
| 20260506023000 | 47 | 283 | 0.0 | 0.0 | 0.00 | 0.00 | 0.00 | 67 | |
| 20260506022500 | 48 | 317 | 3.0 | 3.0 | 0.00 | 0.00 | 0.00 | 66 | |
| 20260506022000 | 47 | 147 | 1.0 | 2.0 | 0.00 | 0.00 | 0.00 | 68 | |
| 20260506021500 | 47 | 98 | 1.0 | 2.0 | 0.00 | 0.00 | 0.00 | 69 | |
| 20260506021000 | 47 | 137 | 0.0 | 1.0 | 0.00 | 0.00 | 0.00 | 68 | |
| 20260506020500 | 48 | 65 | 1.0 | 1.0 | 0.00 | 0.00 | 0.00 | 67 | |
| 20260506020000 | 47 | 48 | 2.0 | 2.0 | 0.00 | 0.00 | 0.00 | 68 | |
| 20260506015500 | 47 | 154 | 2.0 | 2.0 | 0.00 | 0.00 | 0.00 | 69 | |
| 20260506015000 | 47 | 32 | 2.0 | 2.0 | 0.00 | 0.00 | 0.00 | 69 | |
| 20260506014500 | 47 | 356 | 0.0 | 0.0 | 0.00 | 0.00 | 0.00 | 70 | |
| 20260506014000 | 46 | 283 | 2.0 | 2.0 | 0.00 | 0.00 | 0.00 | 71 | |
| 20260506013500 | 46 | 326 | 1.0 | 2.0 | 0.00 | 0.00 | 0.00 | 69 | |
| 20260506013000 | 46 | 84 | 0.0 | 2.0 | 0.00 | 0.00 | 0.00 | 70 | |
| 20260506012500 | 46 | 172 | 0.0 | 0.0 | 0.00 | 0.00 | 0.00 | 70 | |
| 20260506012000 | 46 | 280 | 0.0 | 2.0 | 0.00 | 0.00 | 0.00 | 71 | |
| 20260506011500 | 46 | 131 | 2.0 | 2.0 | 0.00 | 0.00 | 0.00 | 72 | |
| 20260506011000 | 46 | 89 | 0.0 | 0.0 | 0.00 | 0.00 | 0.00 | 72 | |
| 20260506010500 | 47 | 272 | 3.0 | 4.0 | 0.00 | 0.00 | 0.00 | 67 | |
| 20260506010000 | 49 | 287 | 2.0 | 3.0 | 0.00 | 0.00 | 0.00 | 62 | |
| 20260506005500 | 49 | 12 | 1.0 | 2.0 | 0.00 | 0.00 | 0.00 | 62 | |
| 20260506005000 | 48 | 52 | 1.0 | 2.0 | 0.00 | 0.00 | 0.00 | 65 | |
| 20260506004500 | 46 | 119 | 2.0 | 3.0 | 0.00 | 0.00 | 0.00 | 71 | |
| 20260506004000 | 46 | 143 | 2.0 | 2.0 | 0.00 | 0.00 | 0.00 | 73 | |
| 20260506003500 | 47 | 296 | 3.0 | 3.0 | 0.00 | 0.00 | 0.00 | 69 | |
| 20260506003000 | 49 | 297 | 3.0 | 3.0 | 0.00 | 0.00 | 0.00 | 63 | |
| 20260506002500 | 49 | 163 | 0.0 | 0.0 | 0.00 | 0.00 | 0.00 | 64 | |
| 20260506002000 | 48 | 216 | 0.0 | 1.0 | 0.00 | 0.00 | 0.00 | 66 | |
| 20260506001500 | 48 | 120 | 2.0 | 2.0 | 0.00 | 0.00 | 0.00 | 65 | |
| 20260506001000 | 48 | 85 | 2.0 | 3.0 | 0.00 | 0.00 | 0.00 | 65 | |
| 20260506000500 | 47 | 84 | 3.0 | 3.0 | 0.00 | 0.00 | 0.00 | 68 | |
| 20260506000000 | 47 | 119 | 2.0 | 3.0 | 0.00 | 0.00 | 0.00 | 70 | |
| 20260505235500 | 46 | 137 | 2.0 | 3.0 | 0.00 | 0.00 | 0.00 | 72 | |
| 20260505235000 | 46 | 73 | 2.0 | 3.0 | 0.00 | 0.00 | 0.00 | 73 | |
| 20260505234500 | 46 | 32 | 0.0 | 0.0 | 0.00 | 0.00 | 0.00 | 73 | |
| 20260505234000 | 46 | 259 | 3.0 | 3.0 | 0.00 | 0.00 | 0.00 | 72 | |
| 20260505233500 | 47 | 315 | 0.0 | 0.0 | 0.00 | 0.00 | 0.00 | 68 | |
| 20260505233000 | 47 | 288 | 0.0 | 0.0 | 0.00 | 0.00 | 0.00 | 68 | |
| 20260505232500 | 46 | 124 | 0.0 | 0.0 | 0.00 | 0.00 | 0.00 | 72 | |
| 20260505232000 | 46 | 10 | 0.0 | 1.0 | 0.00 | 0.00 | 0.00 | 72 | |
| 20260505231500 | 46 | 263 | 1.0 | 2.0 | 0.00 | 0.00 | 0.00 | 70 | |
| 20260505231000 | 47 | 264 | 2.0 | 2.0 | 0.00 | 0.00 | 0.00 | 69 | |
| 20260505230500 | 47 | 310 | 0.0 | 0.0 | 0.00 | 0.00 | 0.00 | 68 | |
| 20260505230000 | 47 | 164 | 0.0 | 0.0 | 0.00 | 0.00 | 0.00 | 69 | |
| 20260505225500 | 46 | 172 | 1.0 | 1.0 | 0.00 | 0.00 | 0.00 | 70 | |
| 20260505225000 | 47 | 177 | 0.0 | 0.0 | 0.00 | 0.00 | 0.00 | 68 | |
| 20260505224500 | 48 | 252 | 1.0 | 2.0 | 0.00 | 0.00 | 0.00 | 66 | |
| 20260505224000 | 49 | 353 | 0.0 | 1.0 | 0.00 | 0.00 | 0.00 | 64 | |
| 20260505223500 | 49 | 316 | 2.0 | 2.0 | 0.00 | 0.00 | 0.00 | 64 | |
| 20260505223000 | 49 | 336 | 0.0 | 0.0 | 0.00 | 0.00 | 0.00 | 63 | |
| 20260505222500 | 49 | 115 | 0.0 | 1.0 | 0.00 | 0.00 | 0.00 | 64 | |
| 20260505222000 | 50 | 48 | 1.0 | 1.0 | 0.00 | 0.00 | 0.00 | 62 | |
| 20260505221500 | 49 | 147 | 1.0 | 2.0 | 0.00 | 0.00 | 0.00 | 63 | |
| 20260505221000 | 48 | 171 | 2.0 | 2.0 | 0.00 | 0.00 | 0.00 | 65 | |
| 20260505220500 | 48 | 167 | 0.0 | 1.0 | 0.00 | 0.00 | 0.00 | 66 | |
| 20260505220000 | 48 | 353 | 1.0 | 2.0 | 0.00 | 0.00 | 0.00 | 66 | |
| 20260505215500 | 49 | 343 | 1.0 | 2.0 | 0.00 | 0.00 | 0.00 | 64 | |
| 20260505215000 | 48 | 26 | 0.0 | 1.0 | 0.00 | 0.00 | 0.00 | 66 | |
| 20260505214500 | 47 | 325 | 3.0 | 3.0 | 0.00 | 0.00 | 0.00 | 68 | |
| 20260505214000 | 48 | 329 | 2.0 | 2.0 | 0.00 | 0.00 | 0.00 | 65 | |
| 20260505213500 | 50 | 53 | 2.0 | 2.0 | 0.00 | 0.00 | 0.00 | 63 | |
| 20260505213000 | 50 | 75 | 0.0 | 1.0 | 0.00 | 0.00 | 0.00 | 60 | |
| 20260505212500 | 50 | 182 | 1.0 | 2.0 | 0.00 | 0.00 | 0.00 | 62 | |
| 20260505212000 | 50 | 6 | 2.0 | 3.0 | 0.00 | 0.00 | 0.00 | 62 | |
| 20260505211500 | 49 | 201 | 0.0 | 2.0 | 0.00 | 0.00 | 0.00 | 62 | |
| 20260505211001 | 50 | 283 | 2.0 | 2.0 | 0.00 | 0.00 | 0.00 | 62 | |
| 20260505210500 | 50 | 330 | 0.0 | 2.0 | 0.00 | 0.00 | 0.00 | 61 | |
| 20260505210000 | 50 | 310 | 2.0 | 2.0 | 0.00 | 0.00 | 0.00 | 62 | |
| 20260505205500 | 49 | 2 | 2.0 | 4.0 | 0.00 | 0.00 | 0.00 | 64 | |
| 20260505205000 | 50 | 338 | 3.0 | 5.0 | 0.00 | 0.00 | 0.00 | 63 | |
| 20260505204500 | 50 | 266 | 1.0 | 2.0 | 0.00 | 0.00 | 0.00 | 61 | |
| 20260505204001 | 49 | 196 | 2.0 | 3.0 | 0.00 | 0.00 | 0.00 | 64 | |
| 20260505203500 | 50 | 294 | 3.0 | 4.0 | 0.00 | 0.00 | 0.00 | 63 | |
| 20260505203000 | 51 | 355 | 2.0 | 3.0 | 0.00 | 0.00 | 0.00 | 60 | |
| 20260505202500 | 50 | 18 | 2.0 | 2.0 | 0.00 | 0.00 | 0.00 | 61 | |
| 20260505202000 | 51 | 339 | 4.0 | 4.0 | 0.00 | 0.00 | 0.00 | 58 | |
| 20260505201500 | 53 | 255 | 0.0 | 1.0 | 0.00 | 0.00 | 0.00 | 55 | |
| 20260505201000 | 53 | 115 | 2.0 | 2.0 | 0.00 | 0.00 | 0.00 | 55 | |
| 20260505200500 | 53 | 178 | 2.0 | 4.0 | 0.00 | 0.00 | 0.00 | 55 | |
| 20260505200000 | 53 | 233 | 0.0 | 1.0 | 0.00 | 0.00 | 0.00 | 54 | |
| 20260505195500 | 51 | 190 | 3.0 | 4.0 | 0.00 | 0.00 | 0.00 | 58 | |
| 20260505195000 | 49 | 24 | 0.0 | 2.0 | 0.00 | 0.00 | 0.00 | 64 | |
| 20260505194500 | 49 | 0 | 2.0 | 3.0 | 0.00 | 0.00 | 0.00 | 66 | |
| 20260505194000 | 51 | 305 | 2.0 | 4.0 | 0.00 | 0.00 | 0.00 | 62 | |
| 20260505193500 | 53 | 309 | 1.0 | 2.0 | 0.00 | 0.00 | 0.00 | 54 | |
| 20260505193000 | 53 | 57 | 1.0 | 1.0 | 0.00 | 0.00 | 0.00 | 54 | |
| 20260505192500 | 53 | 163 | 1.0 | 2.0 | 0.00 | 0.00 | 0.00 | 56 | |
| 20260505192000 | 52 | 172 | 2.0 | 3.0 | 0.00 | 0.00 | 0.00 | 57 | |
| 20260505191501 | 52 | 356 | 0.0 | 1.0 | 0.00 | 0.00 | 0.00 | 57 | |
| 20260505191001 | 53 | 357 | 2.0 | 3.0 | 0.00 | 0.00 | 0.00 | 57 | |
| 20260505190500 | 53 | 327 | 0.0 | 1.0 | 0.00 | 0.00 | 0.00 | 56 | |
| 20260505190000 | 54 | 228 | 2.0 | 2.0 | 0.00 | 0.00 | 0.00 | 54 | |
| 20260505185501 | 54 | 201 | 0.0 | 2.0 | 0.00 | 0.00 | 0.00 | 53 | |
| 20260505185001 | 54 | 164 | 1.0 | 2.0 | 0.00 | 0.00 | 0.00 | 55 | |
| 20260505184504 | 54 | 194 | 5.0 | 5.0 | 0.00 | 0.00 | 0.00 | 55 | |
| 20260505184001 | 54 | 223 | 5.0 | 8.0 | 0.00 | 0.00 | 0.00 | 55 | |
| 20260505183501 | 54 | 251 | 3.0 | 5.0 | 0.00 | 0.00 | 0.00 | 55 | |
| 20260505183001 | 54 | 209 | 6.0 | 8.0 | 0.00 | 0.00 | 0.00 | 56 | |
| 20260505182501 | 54 | 206 | 5.0 | 7.0 | 0.00 | 0.00 | 0.00 | 57 | |
| 20260505182001 | 54 | 237 | 4.0 | 6.0 | 0.00 | 0.00 | 0.00 | 57 | |
| 20260505181500 | 55 | 192 | 5.0 | 7.0 | 0.00 | 0.00 | 0.00 | 56 | |
| 20260505181000 | 55 | 206 | 5.0 | 6.0 | 0.00 | 0.00 | 0.00 | 56 | |
| 20260505180500 | 55 | 191 | 6.0 | 7.0 | 0.00 | 0.00 | 0.00 | 56 | |
| 20260505180000 | 55 | 193 | 6.0 | 7.0 | 0.00 | 0.00 | 0.00 | 55 | |
| 20260505175501 | 55 | 190 | 7.0 | 7.0 | 0.00 | 0.00 | 0.00 | 55 | |
| 20260505175000 | 56 | 202 | 7.0 | 7.0 | 0.00 | 0.00 | 0.00 | 55 | |
| 20260505174500 | 56 | 220 | 2.0 | 3.0 | 0.00 | 0.00 | 0.00 | 55 | |
| 20260505174001 | 58 | 235 | 4.0 | 4.0 | 0.00 | 0.00 | 0.00 | 51 | |
| 20260505173500 | 58 | 260 | 2.0 | 2.0 | 0.00 | 0.00 | 0.00 | 46 | |
| 20260505173001 | 59 | 342 | 1.0 | 1.0 | 0.00 | 0.00 | 0.00 | 47 | |
| 20260505172501 | 59 | 163 | 0.0 | 1.0 | 0.00 | 0.00 | 0.00 | 45 | |
| 20260505172001 | 59 | 153 | 0.0 | 0.0 | 0.00 | 0.00 | 0.00 | 46 | |
| 20260505171501 | 59 | 50 | 0.0 | 1.0 | 0.00 | 0.00 | 0.00 | 45 | |
| 20260505171005 | 60 | 235 | 0.0 | 0.0 | 0.00 | 0.00 | 0.00 | 44 | |
| 20260505170500 | 61 | 80 | 0.0 | 0.0 | 0.00 | 0.00 | 0.00 | 41 | |
| 20260505170000 | 61 | 86 | 1.0 | 1.0 | 0.00 | 0.00 | 0.00 | 41 | |
| 20260505165500 | 62 | 91 | 2.0 | 3.0 | 0.00 | 0.00 | 0.00 | 40 | |
| 20260505165000 | 62 | 83 | 2.0 | 4.0 | 0.00 | 0.00 | 0.00 | 39 | |
| 20260505164500 | 62 | 78 | 2.0 | 4.0 | 0.00 | 0.00 | 0.00 | 38 | |
| 20260505164000 | 63 | 59 | 3.0 | 3.0 | 0.00 | 0.00 | 0.00 | 38 | |
| 20260505163500 | 63 | 69 | 4.0 | 4.0 | 0.00 | 0.00 | 0.00 | 37 | |
| 20260505163001 | 63 | 33 | 3.0 | 4.0 | 0.00 | 0.00 | 0.00 | 38 | |
| 20260505162501 | 64 | 74 | 5.0 | 8.0 | 0.00 | 0.00 | 0.00 | 37 |